Beckley, WV

8:23 PM EDT on October 23, 2017 (GMT -0400)
Raleigh County Memorial

Weather History for KBKW - August, 2013

Change the Weather History Date:

Sunday, August 4, 2013

  Actual Average Record
Temperature  
Mean Temperature 65 °F 70 °F  
Max Temperature 74 °F 80 °F 94 °F (1955)
Min Temperature 56 °F 61 °F 43 °F (1912)
Degree Days  
Heating Degree Days 0 0  
Month to date heating degree days 0 0  
Since 1 June heating degree days 12 47  
Since 1 July heating degree days 5 8  
Cooling Degree Days 0 6  
Month to date cooling degree days 12 24  
Year to date cooling degree days 409 357  
Since 1 June cooling degree days 342 316  
Growing Degree Days 18 (Base 50)    
Moisture  
Dew Point 62 °F    
Average Humidity 81    
Maximum Humidity 100    
Minimum Humidity 61    
Precipitation  
Precipitation 0.00 in 0.14 in 2.40 in (1987)
Month to date precipitation 0.02 0.57  
Year to date precipitation 24.84 26.76  
Snow  
Snow 0.00 in - - ()
Month to date snowfall 0.0  
Since 1 September snowfall 72.0  
Snow Depth 0.00 in    
Sea Level Pressure  
Sea Level Pressure 30.06 in    
Wind  
Wind Speed 5 mph (NNW)    
Max Wind Speed 15 mph    
Max Gust Speed 20 mph    
Visibility 7 miles    
Events Fog    
T = Trace of Precipitation, MM = Missing Value Source: NWS Daily Summary

Daily Weather History Graph

Daily Weather History Graph

Search for Another Location

Airport or City:

Trip Planner

Search our weather history database for the weather conditions in past years. The results will help you decide how hot, cold, wet, or windy it might be!

Date:

Astronomy

Aug. 04, 2013 Rise Set
Actual Time 6:30 AM EDT 8:29 PM EDT
Civil Twilight 6:01 AM EDT 8:58 PM EDT
Nautical Twilight 5:26 AM EDT 9:33 PM EDT
Astronomical Twilight 4:48 AM EDT 10:11 PM EDT
Moon 4:30 AM EDT (8/4) 6:52 PM EDT (8/4)
Length of Visible Light 14h 56m
Length of Day
13h 59m
Waning Crescent, 5% of the Moon is Illuminated
Aug 4
Waning Crescent
Aug 6
New
Aug 14
First Quarter
Aug 20
Full
Aug 28
Last Quarter

Hourly Weather History & Observations

Time (EDT) Temp. Dew Point Humidity Pressure Visibility Wind Dir Wind Speed Gust Speed Precip Events Conditions
12:08 AM 66.2 °F 66.2 °F 100% 30.07 in 10.0 mi Calm Calm - N/A   Overcast
12:19 AM 66.2 °F 66.2 °F 100% 30.07 in 10.0 mi Calm Calm - N/A   Overcast
12:51 AM 66.9 °F 66.0 °F 97% 29.98 in 8.0 mi Calm Calm - N/A   Overcast
1:12 AM 66.2 °F 66.2 °F 100% 30.08 in 7.0 mi Calm Calm - N/A   Overcast
1:29 AM 64.4 °F 64.4 °F 100% 30.07 in 5.0 mi Calm Calm - N/A   Mostly Cloudy
1:51 AM 64.0 °F 64.0 °F 100% 29.98 in 4.0 mi Calm Calm - N/A   Mostly Cloudy
2:29 AM 66.2 °F 66.2 °F 100% 30.07 in 7.0 mi Calm Calm - N/A   Mostly Cloudy
2:51 AM 64.9 °F 64.9 °F 100% 29.97 in 4.0 mi North 3.5 mph - N/A   Overcast
2:55 AM 64.4 °F 64.4 °F 100% 30.07 in 4.0 mi North 3.5 mph - N/A   Mostly Cloudy
3:01 AM 64.4 °F 64.4 °F 100% 30.07 in 1.8 mi NNW 4.6 mph - N/A   Overcast
3:11 AM 64.4 °F 64.4 °F 100% 30.07 in 0.5 mi Calm Calm - N/A Fog Fog
3:30 AM 64.4 °F 64.4 °F 100% 30.07 in 2.0 mi NW 4.6 mph - N/A   Overcast
3:39 AM 64.4 °F 64.4 °F 100% 30.07 in 3.0 mi NW 5.8 mph - N/A   Overcast
3:51 AM 64.9 °F 64.9 °F 100% 29.98 in 4.0 mi NNW 4.6 mph - N/A   Overcast
4:42 AM 64.4 °F 64.4 °F 100% 30.07 in 6.0 mi NNE 4.6 mph - N/A   Overcast
4:51 AM 64.0 °F 64.0 °F 100% 29.98 in 6.0 mi NNE 5.8 mph - N/A   Mostly Cloudy
5:13 AM 64.4 °F 64.4 °F 100% 30.07 in 6.0 mi North 4.6 mph - N/A   Mostly Cloudy
5:20 AM 62.6 °F 62.6 °F 100% 30.07 in 6.0 mi North 4.6 mph - N/A   Mostly Cloudy
5:27 AM 62.6 °F 62.6 °F 100% 30.08 in 6.0 mi North 3.5 mph - N/A   Mostly Cloudy
5:51 AM 63.0 °F 63.0 °F 100% 30.01 in 4.0 mi Calm Calm - N/A   Overcast
6:51 AM 63.0 °F 63.0 °F 100% 30.02 in 4.0 mi NNW 3.5 mph - N/A   Overcast
7:51 AM 64.0 °F 63.0 °F 96% 30.03 in 5.0 mi WNW 3.5 mph - N/A   Mostly Cloudy
8:07 AM 64.4 °F 62.6 °F 94% 30.11 in 6.0 mi North 3.5 mph - N/A   Scattered Clouds
8:19 AM 64.4 °F 62.6 °F 94% 30.11 in 6.0 mi Calm Calm - N/A   Mostly Cloudy
8:38 AM 64.4 °F 62.6 °F 94% 30.12 in 6.0 mi North 4.6 mph - N/A   Mostly Cloudy
8:46 AM 64.4 °F 62.6 °F 94% 30.13 in 6.0 mi NNW 5.8 mph - N/A   Mostly Cloudy
8:51 AM 66.0 °F 63.0 °F 90% 30.04 in 7.0 mi North 4.6 mph - N/A   Mostly Cloudy
9:08 AM 64.4 °F 62.6 °F 94% 30.12 in 7.0 mi NW 3.5 mph - N/A   Mostly Cloudy
9:16 AM 66.2 °F 62.6 °F 88% 30.13 in 8.0 mi North 3.5 mph - N/A   Mostly Cloudy
9:25 AM 68.0 °F 62.6 °F 83% 30.12 in 9.0 mi West 4.6 mph - N/A   Mostly Cloudy
9:42 AM 68.0 °F 62.6 °F 83% 30.13 in 10.0 mi WNW 4.6 mph - N/A   Scattered Clouds
9:51 AM 66.9 °F 62.1 °F 84% 30.04 in 10.0 mi WNW 6.9 mph - N/A   Partly Cloudy
10:51 AM 69.1 °F 61.0 °F 75% 30.05 in 10.0 mi North 6.9 mph - N/A   Mostly Cloudy
11:51 AM 70.0 °F 60.1 °F 71% 30.05 in 10.0 mi NNW 5.8 mph - N/A   Mostly Cloudy
12:51 PM 73.0 °F 60.1 °F 64% 30.04 in 10.0 mi North 4.6 mph - N/A   Scattered Clouds
1:51 PM 72.0 °F 57.9 °F 61% 30.03 in 10.0 mi North 8.1 mph - N/A   Mostly Cloudy
2:51 PM 69.1 °F 59.0 °F 70% 30.05 in 10.0 mi North 9.2 mph - N/A   Overcast
3:51 PM 70.0 °F 60.1 °F 71% 30.05 in 10.0 mi North 6.9 mph - N/A   Overcast
4:51 PM 73.9 °F 59.0 °F 59% 30.03 in 10.0 mi Variable 6.9 mph - N/A   Scattered Clouds
5:51 PM 72.0 °F 60.1 °F 66% 30.04 in 10.0 mi NNW 9.2 mph - N/A   Partly Cloudy
6:51 PM 71.1 °F 60.1 °F 68% 30.04 in 10.0 mi North 9.2 mph - N/A   Mostly Cloudy
7:51 PM 68.0 °F 60.1 °F 76% 30.06 in 10.0 mi North 4.6 mph - N/A   Clear
8:51 PM 64.0 °F 57.9 °F 80% 30.07 in 10.0 mi NNW 4.6 mph - N/A   Partly Cloudy
9:51 PM 64.0 °F 57.9 °F 80% 30.07 in 10.0 mi NNE 5.8 mph - N/A   Partly Cloudy
10:51 PM 62.1 °F 57.9 °F 86% 30.08 in 10.0 mi Calm Calm - N/A   Clear
11:51 PM 57.9 °F 57.9 °F 100% 30.11 in 10.0 mi Calm Calm - N/A   Partly Cloudy